Location: Gälforsberget
(66.6500°N, 22.4167°E)
Time: 06:46:25
(UTC+00:00)

Cosmos 2084 Rocket - Pass Details

Date: 11 April 2026
Orbit: 531 x 579 km, 62.8° (Epoch: 13 May)

Event Time Altitude Azimuth Distance (km) Brightness Sun altitude
Exits shadow 23:16:02 20° 225° (SW) 1,305 4.7 -14.3°
Maximum altitude 23:18:29 43° 163° (SSE) 791 3.7 -14.3°
Drops below altitude 10° 23:22:28 10° 92° (E) 1,861 6.2 -14.2°
Sets 23:24:46 0° 86° (E) 2,767 7.1 -14.1°
